SCOUT X-4 DEB, 2986

Orbit data source: Space-Track

SCOUT X-4 DEB, 2986 is space debris in LEO originally from a launch on Thu, 04 Jun 1964 UTC launched from the Air Force Western Test Range (AFWTR). Debris objects in space refer to the collection of defunct objects orbiting the Earth. Examples of debris include non-operational satellites, rocket bodies, and fragments generated from explosions, collisions, or faulty payload assembly.

Loading next visibility...
Identifier
2986, 1964-026E
Orbit
LEO
Country
Flag of USUS
Related business
Manufacturer
Unknown
Mission
Spacecraft
Bus & Motor
Unknown
Mass
Unknown
Launch date (UTC)
1964-06-04 (62 years ago)
Launch vehicle
Unknown
Launch site
Air Force Western Test Range (AFWTR)
Object type
Payload
Rocket body
Debris
Shape & HBR
Unknown shape, 0.1 m
Radar Cross Section
Small (<0.1 m²)

Expand to show TLE details & history
Last TLE update: 12 hours ago

TLE from 12 hours ago
0 SCOUT X-4 DEB
1 02986U 64026E   26140.41884759  .00000143  00000-0  80498-4 0  9993
2 02986  90.4771 190.9072 0044607 315.3743  44.3852 14.06522512170563
Epoch: 2026-05-20T10:03Z
TLE epoch observation values (Epoch: 2026-05-20T10:03:08.431Z)
Latitude
-0.00003°
Longitude
162.04339°
Altitude
851.287 km
Speed
7.439 km/s
True Right ascension
12h 43m 37s
True Declination
0° 00' 00"
Sunlit
Object was in full shadow at epoch
Visualization orbit readout
Latitude
Unknown
Longitude
Unknown
Altitude
Unknown
Speed
Unknown
Apparent Right ascension
Unknown
Apparent Declination
Unknown
Sunlit
N/A
Visualization observer readout
Local Sidereal Time
06:53:55
Azimuth
Unknown
Elevation
Unknown
Doppler factor
Unknown
Orbital elements
Apogee altitude
900.589 km
Perigee altitude
835.94 km
Semi-major axis
7,246.402 km
Eccentricity
0.00446
Inclination
90.4771°
RAAN
190.9072°
Arg. of periapsis
315.3743°
True anomaly
44.74417°
Mean anomaly
44.3852°
Eccentric anomaly
44.56454°
Mean motion
3.51852 °/min
Orbital period
102.32 mins
BSTAR
0.000080498
Loading maneuver chart data...
Computing Atmospheric mass density...
Loading historical data...
Loading historical data...
Loading historical data...
Loading historical data...
Loading historical data...
Loading historical data...
Loading historical data...

Documentation

Showing up to 5 results
|